Location: ??????
(38.1303°N, 24.0039°E)
Time: 22:22:31
(UTC+00:00)

Aureole 3 Rocket - Pass Details

Date: 20 June 2021
Orbit: 399 x 1739 km, 82.5° (Epoch: 28 July)

Event Time Altitude Azimuth Distance (km) Brightness Sun altitude
Rises 00:34:57 0° 345° (NNW) 2,723 7.0 -21.4°
Reaches altitude 10° 00:36:52 10° 340° (NNW) 1,952 6.1 -21.2°
Maximum altitude 00:41:01 52° 264° (W) 919 3.6 -20.7°
Enters shadow 00:42:11 43° 223° (SW) 1,088 3.8 -20.6°
